Terug naar catalogus

STARLINK-32658

ActiefCommunicatieVLEO
NORAD 62999·PAYLOAD·🇺🇸 United States

Gelanceerd Feb 11, 2025 vanaf Cape Canaveral Space Force Station

Loading…

Volgende Passages (komende 24 uur)

TLE

VersSource: CelesTrak SupGP

Epoch: Sep 14, 2026, 21:22 UTC

1 62999C 25031U   26257.89076389 -.00039230  00000+0 -14208-2 0  2570
2 62999  43.0018 154.6897 0001288 266.3865  59.5789 15.27600168    18

Volg STARLINK-32658 in realtime met AllMySat

Download on the App Store